Yatton Keynell, United Kingdom

5:18 AM GMT on March 22, 2019 (GMT +0000)
Yatton Keynell

Weather History for 03740 - July, 2012

Change the Weather History Date:

Friday, July 20, 2012

  Actual Average Record
Temperature  
Mean Temperature 57 °F -  
Max Temperature 64 °F 68 °F - ()
Min Temperature 50 °F 53 °F - ()
Degree Days  
Heating Degree Days 8    
Growing Degree Days 7 (Base 50)    
Moisture  
Dew Point 48 °F    
Average Humidity 70    
Maximum Humidity 88    
Minimum Humidity 42    
Precipitation  
Precipitation 0.01 in 0.08 in - ()
Sea Level Pressure  
Sea Level Pressure 30.03 in    
Wind  
Wind Speed 5 mph ()    
Max Wind Speed 10 mph    
Max Gust Speed -    
T = Trace of Precipitation, MM = Missing Value Source: Averaged Metar Reports

Daily Weather History Graph

Daily Weather History Graph

Search for Another Location

Airport or City:

Astronomy

Jul. 20, 2012 Rise Set
Actual Time 5:15 AM BST 9:12 PM BST
Civil Twilight 4:31 AM BST 9:55 PM BST
Nautical Twilight 3:30 AM BST 10:56 PM BST
Astronomical Twilight 1:46 AM BST 12:59 AM BST
Moon 6:53 AM BST (7/20) 9:22 PM BST (7/20)
Length of Visible Light 17h 24m
Length of Day
15h 57m
New Moon, 2% of the Moon is Illuminated
Jul 20
New Moon
Jul 26
First Quarter
Aug 2
Full
Aug 9
Last Quarter
Aug 17
New

Hourly Weather History & Observations

Time (BST) Temp. Dew Point Humidity Pressure Visibility Wind Dir Wind Speed Gust Speed Precip Events Conditions
12:50 AM 53 °F 47 °F 73% 29.97 in - West 6.9 mph - -   Mostly Cloudy
12:50 AM 53.6 °F 46.4 °F 77% 29.95 in - West 6.9 mph - N/A   Mostly Cloudy
1:50 AM 53.6 °F 48.2 °F 82% 29.95 in - West 5.8 mph - N/A   Overcast
2:50 AM 53.6 °F 48.2 °F 82% 29.95 in - West 5.8 mph - N/A   Overcast
3:50 AM 52 °F 47 °F 79% 29.97 in - West 5.8 mph - -   Overcast
3:50 AM 51.8 °F 48.2 °F 88% 29.95 in - West 5.8 mph - N/A   Overcast
4:50 AM 51.8 °F 48.2 °F 88% 29.95 in - WSW 4.6 mph - N/A   Mostly Cloudy
5:50 AM 51.8 °F 48.2 °F 88% 29.98 in - West 4.6 mph - N/A   Mostly Cloudy
6:50 AM 53 °F 49 °F 80% 30.00 in - WSW 3.5 mph - -  
6:50 AM 53.6 °F 48.2 °F 82% 29.98 in - WSW 3.5 mph - N/A   Mostly Cloudy
7:50 AM 53.6 °F 48.2 °F 82% 30.01 in - West 4.6 mph - N/A   Mostly Cloudy
8:50 AM 55.4 °F 50.0 °F 82% 30.01 in - WNW 5.8 mph - N/A   Mostly Cloudy
9:50 AM 57 °F 50 °F 70% 30.03 in - NW 5.8 mph - -   Scattered Clouds
9:50 AM 57.2 °F 50.0 °F 77% 30.01 in - NW 5.8 mph - N/A   Mostly Cloudy
10:50 AM 59.0 °F 50.0 °F 72% 30.01 in - NNW 3.5 mph - N/A   Mostly Cloudy
11:50 AM 60.8 °F 48.2 °F 63% 30.04 in - NNW 5.8 mph - N/A   Mostly Cloudy
12:50 PM 61 °F 49 °F 55% 30.04 in - NW 4.6 mph - -   Partly Cloudy
12:50 PM 60.8 °F 50.0 °F 68% 30.04 in - NW 4.6 mph - N/A   Mostly Cloudy
1:50 PM 60.8 °F 48.2 °F 63% 30.04 in - North 9.2 mph - N/A   Mostly Cloudy
2:50 PM 60.8 °F 48.2 °F 63% 30.04 in - WNW 8.1 mph - N/A   Mostly Cloudy
3:50 PM 64 °F 46 °F 42% 30.05 in - NW 8.1 mph - -   Mostly Cloudy
3:50 PM 64.4 °F 46.4 °F 52% 30.04 in - NW 8.1 mph - N/A   Mostly Cloudy
4:50 PM 60.8 °F 48.2 °F 63% 30.06 in - NNW 10.4 mph - N/A   Overcast
5:50 PM 62.6 °F 46.4 °F 55% 30.06 in - NNW 6.9 mph - N/A   Mostly Cloudy
6:50 PM 62 °F 46 °F 46% 30.08 in - NW 4.6 mph - -   Scattered Clouds
6:50 PM 62.6 °F 46.4 °F 55% 30.06 in - NW 4.6 mph - N/A   Partly Cloudy
7:50 PM 62.6 °F 48.2 °F 59% 30.06 in - NW 2.3 mph - N/A   Mostly Cloudy
8:50 PM 59.0 °F 50.0 °F 72% 30.09 in - NE 6.9 mph - N/A   Mostly Cloudy
9:50 PM 56 °F 49 °F 69% 30.12 in - ENE 9.2 mph - -   Scattered Clouds
9:50 PM 57.2 °F 48.2 °F 72% 30.09 in - ENE 9.2 mph - N/A   Mostly Cloudy
10:50 PM 55.4 °F 48.2 °F 77% 30.12 in - East 9.2 mph - N/A   Mostly Cloudy
11:50 PM 55.4 °F 48.2 °F 77% 30.12 in - ENE 6.9 mph - N/A   Mostly Cloudy